Franklin, NC

10:05 AM EDT on May 24, 2018 (GMT -0400)
Franklin

Weather History for K1A5 - May, 2014

Change the Weather History Date:

Wednesday, May 21, 2014

  Actual Average (KTOC) Record (KTOC)
Temperature  
Mean Temperature 64 °F -  
Max Temperature 81 °F 80 °F 88 °F (2014)
Min Temperature 46 °F 57 °F 58 °F (2014)
Degree Days  
Heating Degree Days 2    
Growing Degree Days 14 (Base 50)    
Moisture  
Dew Point 53 °F    
Average Humidity 73    
Maximum Humidity 100    
Minimum Humidity 34    
Precipitation  
Precipitation 0.00 in - - ()
Sea Level Pressure  
Sea Level Pressure 30.18 in    
Wind  
Wind Speed 2 mph (WNW)    
Max Wind Speed 13 mph    
Max Gust Speed 21 mph    
Visibility 8 miles    
Events Fog    
Averages and records for this station are not official NWS values.
T = Trace of Precipitation, MM = Missing Value Source: NWS Daily Summary

Daily Weather History Graph

Daily Weather History Graph

Search for Another Location

Airport or City:

Astronomy

May. 21, 2014 Rise Set
Actual Time 6:25 AM EDT 8:35 PM EDT
Civil Twilight 5:56 AM EDT 9:04 PM EDT
Nautical Twilight 5:21 AM EDT 9:39 PM EDT
Astronomical Twilight 4:44 AM EDT 10:17 PM EDT
Moon 1:50 AM EDT (5/21) 1:31 PM EDT (5/21)
Length of Visible Light 15h 07m
Length of Day
14h 09m
Waning Gibbous, 49% of the Moon is Illuminated
May 21
Waning Gibbous
May 28
New
Jun 5
First Quarter
Jun 13
Full
Jun 19
Last Quarter

Hourly Weather History & Observations

Time (EDT) Temp. Heat Index Dew Point Humidity Pressure Visibility Wind Dir Wind Speed Gust Speed Precip Events Conditions
12:15 AM 54.7 °F - 54.7 °F 100% 30.20 in 10.0 mi Calm Calm - N/A   Clear
12:35 AM 53.8 °F - 53.8 °F 100% 30.20 in 10.0 mi Calm Calm - N/A   Clear
12:55 AM 52.9 °F - 52.9 °F 100% 30.20 in 7.0 mi Calm Calm - N/A   Clear
1:15 AM 52.2 °F - 52.2 °F 100% 30.20 in 5.0 mi Calm Calm - N/A   Clear
1:35 AM 51.1 °F - 51.1 °F 100% 30.20 in 5.0 mi Calm Calm - N/A   Clear
1:55 AM 50.5 °F - 50.5 °F 100% 30.20 in 1.8 mi Calm Calm - N/A   Mist
2:15 AM 49.8 °F - 49.8 °F 100% 30.20 in 5.0 mi Calm Calm - N/A   Clear
2:35 AM 49.6 °F - 49.6 °F 100% 30.20 in 2.5 mi Calm Calm - N/A   Clear
2:55 AM 49.1 °F - 49.1 °F 100% 30.20 in 5.0 mi Calm Calm - N/A   Clear
3:15 AM 48.6 °F - 48.6 °F 100% 30.20 in 7.0 mi Calm Calm - N/A   Clear
3:35 AM 48.2 °F - 48.2 °F 100% 30.20 in 4.0 mi Calm Calm - N/A   Clear
3:55 AM 48.0 °F - 48.0 °F 100% 30.21 in 7.0 mi Calm Calm - N/A   Scattered Clouds
4:15 AM 47.3 °F - 47.3 °F 100% 30.21 in 3.0 mi Calm Calm - N/A   Scattered Clouds
4:35 AM 46.6 °F - 46.6 °F 100% 30.21 in 5.0 mi Calm Calm - N/A   Scattered Clouds
4:55 AM 46.4 °F - 46.4 °F 100% 30.21 in 0.8 mi Calm Calm - N/A   Overcast
5:15 AM 46.4 °F - 46.4 °F 100% 30.21 in 1.5 mi Calm Calm - N/A   Overcast
5:35 AM 46.6 °F - 46.6 °F 100% 30.22 in 0.8 mi Calm Calm - N/A   Overcast
5:55 AM 47.7 °F - 47.7 °F 100% 30.22 in 0.2 mi Calm Calm - N/A Fog Fog
6:15 AM 47.3 °F - 47.3 °F 100% 30.23 in 0.2 mi Calm Calm - N/A Fog Fog
6:35 AM 47.1 °F - 47.1 °F 100% 30.23 in 0.2 mi Calm Calm - N/A Fog Fog
7:15 AM 47.5 °F - 47.3 °F 99% 30.24 in 0.2 mi Calm Calm - N/A Fog Fog
7:35 AM 47.8 °F - 47.7 °F 99% 30.24 in 0.2 mi Calm Calm - N/A Fog Fog
7:55 AM 48.2 °F - 48.0 °F 99% 30.25 in 0.2 mi Calm Calm - N/A Fog Fog
8:15 AM 49.1 °F - 48.6 °F 98% 30.25 in 1.5 mi Calm Calm - N/A   Overcast
8:35 AM 50.7 °F - 50.4 °F 99% 30.24 in 3.0 mi Calm Calm - N/A   Scattered Clouds
8:55 AM 52.5 °F - 52.0 °F 98% 30.24 in 7.0 mi Calm Calm - N/A   Clear
9:15 AM 54.5 °F - 54.0 °F 98% 30.24 in 10.0 mi Calm Calm - N/A   Clear
9:35 AM 56.3 °F - 56.3 °F 100% 30.23 in 10.0 mi Calm Calm - N/A   Clear
9:55 AM 59.5 °F - 59.5 °F 100% 30.23 in 10.0 mi Calm Calm - N/A   Clear
10:15 AM 64.4 °F - 55.2 °F 72% 30.23 in 10.0 mi Calm Calm - N/A   Scattered Clouds
10:35 AM 67.3 °F - 55.0 °F 65% 30.22 in 10.0 mi Calm Calm - N/A   Scattered Clouds
10:55 AM 70.5 °F - 57.6 °F 63% 30.21 in 10.0 mi Calm Calm - N/A   Clear
11:15 AM 72.7 °F - 56.5 °F 57% 30.21 in 10.0 mi WNW 3.5 mph - N/A   Scattered Clouds
11:35 AM 73.6 °F - 56.1 °F 54% 30.20 in 10.0 mi Calm Calm - N/A   Scattered Clouds
11:55 AM 75.2 °F - 57.0 °F 53% 30.20 in 10.0 mi NNW 8.1 mph - N/A   Scattered Clouds
12:15 PM 75.9 °F - 57.9 °F 54% 30.20 in 10.0 mi NW 5.8 mph - N/A   Scattered Clouds
12:35 PM 76.1 °F - 57.6 °F 53% 30.20 in 10.0 mi NNW 8.1 mph - N/A   Scattered Clouds
12:55 PM 77.2 °F - 58.5 °F 52% 30.18 in 10.0 mi NNW 3.5 mph - N/A   Clear
1:15 PM 77.9 °F - 58.5 °F 51% 30.17 in 10.0 mi Calm Calm - N/A   Clear
1:35 PM 78.6 °F - 53.8 °F 42% 30.16 in 10.0 mi WNW 9.2 mph - N/A   Clear
1:55 PM 80.1 °F 79.9 °F 53.1 °F 39% 30.16 in 10.0 mi West 12.7 mph 20.7 mph N/A   Clear
2:15 PM 80.2 °F 80.2 °F 54.9 °F 41% 30.16 in 10.0 mi WNW 6.9 mph - N/A   Clear
2:35 PM 80.2 °F 80.1 °F 53.6 °F 40% 30.15 in 10.0 mi West 12.7 mph 19.6 mph N/A   Clear
2:55 PM 80.2 °F 80.0 °F 53.4 °F 39% 30.15 in 10.0 mi NNW 9.2 mph 16.1 mph N/A   Clear
3:15 PM 81.3 °F - 52.3 °F 37% 30.14 in 10.0 mi West 12.7 mph 17.3 mph N/A   Clear
3:35 PM 81.0 °F - 49.8 °F 34% 30.13 in 10.0 mi West 9.2 mph 18.4 mph N/A   Clear
3:55 PM 81.7 °F - 52.5 °F 36% 30.13 in 10.0 mi West 11.5 mph - N/A   Clear
4:15 PM 80.8 °F - 51.6 °F 36% 30.13 in 10.0 mi West 12.7 mph 20.7 mph N/A   Clear
4:35 PM 81.5 °F - 51.1 °F 35% 30.13 in 10.0 mi West 11.5 mph 16.1 mph N/A   Scattered Clouds
4:55 PM 81.1 °F - 52.7 °F 37% 30.12 in 10.0 mi NW 8.1 mph - N/A   Clear
5:15 PM 80.6 °F - 52.2 °F 37% 30.12 in 10.0 mi WNW 9.2 mph - N/A   Clear
5:35 PM 79.9 °F - 52.2 °F 38% 30.12 in 10.0 mi NW 6.9 mph - N/A   Clear
5:55 PM 80.1 °F - 51.6 °F 37% 30.11 in 10.0 mi Calm Calm - N/A   Clear
6:15 PM 79.9 °F - 53.8 °F 40% 30.11 in 10.0 mi WNW 4.6 mph - N/A   Clear
6:35 PM 79.0 °F - 52.2 °F 39% 30.10 in 10.0 mi West 9.2 mph - N/A   Clear
6:55 PM 78.6 °F - 51.4 °F 39% 30.10 in 10.0 mi West 9.2 mph - N/A   Clear
7:15 PM 77.4 °F - 52.3 °F 42% 30.10 in 10.0 mi West 10.4 mph - N/A   Clear
7:35 PM 76.3 °F - 52.7 °F 44% 30.10 in 10.0 mi WSW 9.2 mph - N/A   Clear
7:55 PM 74.7 °F - 53.2 °F 47% 30.11 in 10.0 mi WSW 5.8 mph - N/A   Clear
8:15 PM 71.2 °F - 54.5 °F 55% 30.12 in 10.0 mi WSW 5.8 mph - N/A   Clear
8:35 PM 70.2 °F - 53.4 °F 55% 30.12 in 10.0 mi WSW 3.5 mph - N/A   Clear
8:55 PM 67.3 °F - 54.7 °F 64% 30.12 in 10.0 mi WSW 4.6 mph - N/A   Clear
9:15 PM 64.6 °F - 55.2 °F 72% 30.13 in 10.0 mi Calm Calm - N/A   Clear
9:35 PM 63.0 °F - 55.9 °F 78% 30.13 in 10.0 mi Calm Calm - N/A   Clear
9:55 PM 60.6 °F - 55.6 °F 83% 30.14 in 10.0 mi Calm Calm - N/A   Clear
10:15 PM 60.4 °F - 56.1 °F 86% 30.15 in 10.0 mi Calm Calm - N/A   Clear
10:35 PM 60.3 °F - 55.9 °F 86% 30.16 in 10.0 mi Calm Calm - N/A   Clear
10:55 PM 58.8 °F - 55.6 °F 89% 30.16 in 10.0 mi Calm Calm - N/A   Clear
11:15 PM 58.3 °F - 56.8 °F 95% 30.16 in 10.0 mi Calm Calm - N/A   Scattered Clouds
11:35 PM 58.3 °F - 57.7 °F 98% 30.18 in 10.0 mi Calm Calm - N/A   Mostly Cloudy
11:55 PM 58.1 °F - 57.4 °F 97% 30.18 in 10.0 mi Calm Calm - N/A   Mostly Cloudy